Find Local Weather

World > North America > United States > Missouri

Bernie, Missouri Regional Weather

Lat: 36.67N, Lon: 89.97W
Wx Zone: MOZ110
Feedback
Expires:201811192000;;550499
ASUS43 KLSX 191907
RWRMO 

WEATHER SUMMARY FOR MISSOURI
NATIONAL WEATHER SERVICE SPRINGFIELD MO
100 PM CST MON NOV 19 2018

NOTE: "FAIR" INDICATES FEW OR NO CLOUDS BELOW 12,000 FEET WITH NO
       SIGNIFICANT WEATHER AND/OR OBSTRUCTIONS TO VISIBILITY.
       CURRENT SKY AND/OR WEATHER CONDITIONS ARE NOT AVAILABLE FOR
       CHILLICOTHE AND FARMINGTON.


MOZ072>076-082>087-097>100-106>115-192000-
...SOUTH CENTRAL AND SOUTHEAST MISSOURI...
  
CITY           SKY/WX    TMP DP  RH WIND       PRES   REMARKS
CAPE GIRARDEAU CLOUDY    41  36  82 NW6       30.12F                  
FARMINGTON     CLOUDY    37  35  92 W7        30.11F                  
POPLAR BLUFF   CLOUDY    44  37  76 NW8       30.12F                  
WEST PLAINS    CLOUDY    39  34  82 W7        30.13F                  
                                       
$$
  

SKY/WX - Weather  TMP - Temperature  DP - Dew Point  RH - Relative Humidity
WIND - Wind Direction/Speed PRES - Barometric Pressure